TimeMST,TemperatureF,Dew PointF,Humidity,Sea Level PressureIn,VisibilityMPH,Wind Direction,Wind SpeedMPH,Gust SpeedMPH,PrecipitationIn,Events,Conditions,WindDirDegrees,DateUTC
12:53 AM,17.1,14.0,88,29.96,10.0,Calm,Calm,-,N/A,,Clear,0,2013-01-26 07:53:00
1:53 AM,17.1,14.0,88,29.96,8.0,SW,3.5,-,N/A,,Clear,230,2013-01-26 08:53:00
2:53 AM,19.0,15.1,85,29.94,10.0,Calm,Calm,-,N/A,,Clear,0,2013-01-26 09:53:00
3:53 AM,19.9,16.0,85,29.93,10.0,Calm,Calm,-,N/A,,Mostly Cloudy,0,2013-01-26 10:53:00
4:53 AM,18.0,15.1,88,29.94,9.0,NNW,4.6,-,N/A,,Partly Cloudy,340,2013-01-26 11:53:00
5:53 AM,19.0,15.1,85,29.94,8.0,Calm,Calm,-,N/A,,Overcast,0,2013-01-26 12:53:00
6:53 AM,19.9,16.0,85,29.95,10.0,NW,3.5,-,N/A,,Mostly Cloudy,320,2013-01-26 13:53:00
7:53 AM,19.0,15.1,85,29.96,6.0,WNW,3.5,-,N/A,,Mostly Cloudy,300,2013-01-26 14:53:00
8:53 AM,21.9,17.1,82,29.95,8.0,NNW,5.8,-,N/A,,Overcast,340,2013-01-26 15:53:00
9:53 AM,26.1,19.0,75,29.95,10.0,Calm,Calm,-,N/A,,Clear,0,2013-01-26 16:53:00
10:53 AM,30.0,21.0,69,29.94,10.0,West,3.5,-,N/A,,Overcast,270,2013-01-26 17:53:00
11:53 AM,30.0,21.9,72,29.92,10.0,South,3.5,-,N/A,,Mostly Cloudy,170,2013-01-26 18:53:00
12:53 PM,33.1,25.0,72,29.88,10.0,ESE,5.8,-,N/A,,Scattered Clouds,120,2013-01-26 19:53:00
1:53 PM,35.1,26.1,70,29.87,10.0,East,3.5,-,N/A,,Clear,90,2013-01-26 20:53:00
2:53 PM,36.0,28.0,73,29.85,10.0,East,5.8,-,N/A,,Clear,90,2013-01-26 21:53:00
3:53 PM,36.0,28.0,73,29.84,10.0,ENE,4.6,-,N/A,,Clear,70,2013-01-26 22:53:00
4:53 PM,32.0,27.0,82,29.85,10.0,ENE,10.4,-,N/A,,Clear,60,2013-01-26 23:53:00
5:53 PM,30.0,26.1,85,29.85,10.0,East,10.4,-,N/A,,Clear,80,2013-01-27 00:53:00
6:53 PM,27.0,25.0,92,29.84,10.0,ESE,15.0,-,N/A,,Clear,110,2013-01-27 01:53:00
7:53 PM,25.0,23.0,92,29.82,10.0,East,16.1,-,N/A,,Clear,100,2013-01-27 02:53:00
8:53 PM,25.0,21.9,88,29.79,10.0,East,18.4,-,N/A,,Partly Cloudy,100,2013-01-27 03:53:00
9:53 PM,23.0,19.9,88,29.79,9.0,East,17.3,-,N/A,,Scattered Clouds,100,2013-01-27 04:53:00
10:43 PM,26.6,23.0,86,29.73,10.0,East,5.8,21.9,N/A,,Overcast,80,2013-01-27 05:43:00
10:53 PM,27.0,23.0,85,29.82,10.0,NNE,8.1,-,0.00,,Overcast,30,2013-01-27 05:53:00
11:53 PM,26.1,24.1,92,29.80,10.0,Calm,Calm,-,0.00,,Overcast,0,2013-01-27 06:53:00